Time,TemperatureF,DewpointF,PressureIn,WindDirection,WindDirectionDegrees,WindSpeedMPH,WindSpeedGustMPH,Humidity,HourlyPrecipIn,Conditions,Clouds,dailyrainin,SolarRadiationWatts/m^2,SoftwareType,DateUTC
2013-03-09 00:01:00,29.0,28.0,-100.00,SSE,157,9.0,17.0,95,0.01,,,0.26,0.000000,,2013-03-09 07:01:00,
2013-03-09 00:11:00,29.0,28.0,-100.00,SSE,157,9.0,17.0,95,0.01,,,0.26,0.000000,,2013-03-09 07:11:00,
2013-03-09 00:21:00,29.0,28.0,-100.00,SSE,157,9.0,17.0,95,0.01,,,0.26,0.000000,,2013-03-09 07:21:00,
2013-03-09 00:31:00,29.0,28.0,-100.00,SSE,157,9.0,17.0,95,0.01,,,0.26,0.000000,,2013-03-09 07:31:00,
2013-03-09 00:40:00,29.0,28.0,-100.00,SE,134,6.0,18.0,96,0.00,,,0.26,0.000000,,2013-03-09 07:40:00,
2013-03-09 01:01:00,29.0,28.0,-100.00,SE,134,6.0,18.0,96,0.00,,,0.26,0.000000,,2013-03-09 08:01:00,
2013-03-09 01:11:00,29.0,28.0,-100.00,SE,134,6.0,18.0,96,0.00,,,0.26,0.000000,,2013-03-09 08:11:00,
2013-03-09 01:21:00,29.0,28.0,-100.00,SE,134,6.0,18.0,96,0.00,,,0.26,0.000000,,2013-03-09 08:21:00,
2013-03-09 01:31:00,29.0,28.0,-100.00,SE,134,6.0,18.0,96,0.00,,,0.26,0.000000,,2013-03-09 08:31:00,
2013-03-09 01:40:00,25.0,23.0,-100.00,South,185,10.0,19.0,93,0.01,,,-99.99,0.000000,,2013-03-09 08:40:00,
2013-03-09 02:01:00,25.0,23.0,-100.00,South,185,10.0,19.0,93,0.01,,,-99.99,0.000000,,2013-03-09 09:01:00,
2013-03-09 02:11:00,25.0,23.0,-100.00,South,185,10.0,19.0,93,0.01,,,-99.99,0.000000,,2013-03-09 09:11:00,
2013-03-09 02:21:00,25.0,23.0,-100.00,South,185,10.0,19.0,93,0.01,,,-99.99,0.000000,,2013-03-09 09:21:00,
2013-03-09 02:31:00,25.0,23.0,-100.00,South,185,10.0,19.0,93,0.01,,,-99.99,0.000000,,2013-03-09 09:31:00,
2013-03-09 02:40:00,23.0,21.0,-100.00,SSW,210,9.0,19.0,91,0.05,,,0.32,0.000000,,2013-03-09 09:40:00,
2013-03-09 03:01:00,23.0,21.0,-100.00,SSW,210,9.0,19.0,91,0.05,,,0.32,0.000000,,2013-03-09 10:01:00,
2013-03-09 03:11:00,23.0,21.0,-100.00,SSW,210,9.0,19.0,91,0.05,,,0.32,0.000000,,2013-03-09 10:11:00,
2013-03-09 03:21:00,23.0,21.0,-100.00,SSW,210,9.0,19.0,91,0.05,,,0.32,0.000000,,2013-03-09 10:21:00,
2013-03-09 03:31:00,23.0,21.0,-100.00,SSW,210,9.0,19.0,91,0.05,,,0.32,0.000000,,2013-03-09 10:31:00,
2013-03-09 03:40:00,22.0,19.0,-100.00,SSW,204,4.0,13.0,89,0.02,,,0.34,0.000000,,2013-03-09 10:40:00,
2013-03-09 04:01:00,22.0,19.0,-100.00,SSW,204,4.0,13.0,89,0.02,,,0.34,0.000000,,2013-03-09 11:01:00,
2013-03-09 04:11:00,22.0,19.0,-100.00,SSW,204,4.0,13.0,89,0.02,,,0.34,0.000000,,2013-03-09 11:11:00,
2013-03-09 04:21:00,22.0,19.0,-100.00,SSW,204,4.0,13.0,89,0.02,,,0.34,0.000000,,2013-03-09 11:21:00,
2013-03-09 04:31:00,22.0,19.0,-100.00,SSW,204,4.0,13.0,89,0.02,,,0.34,0.000000,,2013-03-09 11:31:00,
2013-03-09 04:40:00,20.0,17.0,-100.00,SSW,201,4.0,9.0,89,0.00,,,0.34,0.000000,,2013-03-09 11:40:00,
2013-03-09 05:01:00,20.0,17.0,-100.00,SSW,201,4.0,9.0,89,0.00,,,0.34,0.000000,,2013-03-09 12:01:00,
2013-03-09 05:11:00,20.0,17.0,-100.00,SSW,201,4.0,9.0,89,0.00,,,0.34,0.000000,,2013-03-09 12:11:00,
2013-03-09 05:21:00,20.0,17.0,-100.00,SSW,201,4.0,9.0,89,0.00,,,0.34,0.000000,,2013-03-09 12:21:00,
2013-03-09 05:31:00,20.0,17.0,-100.00,SSW,201,4.0,9.0,89,0.00,,,0.34,0.000000,,2013-03-09 12:31:00,
2013-03-09 05:40:00,20.0,16.0,-100.00,WNW,289,6.0,12.0,85,0.00,,,0.34,0.000000,,2013-03-09 12:40:00,
2013-03-09 06:02:00,20.0,16.0,-100.00,WNW,289,6.0,12.0,85,0.00,,,0.34,0.000000,,2013-03-09 13:02:00,
2013-03-09 06:11:00,20.0,16.0,-100.00,WNW,289,6.0,12.0,85,0.00,,,0.34,0.000000,,2013-03-09 13:11:00,
2013-03-09 06:21:00,20.0,16.0,-100.00,WNW,289,6.0,12.0,85,0.00,,,0.34,0.000000,,2013-03-09 13:21:00,
2013-03-09 06:31:00,20.0,16.0,-100.00,WNW,289,6.0,12.0,85,0.00,,,0.34,0.000000,,2013-03-09 13:31:00,
2013-03-09 06:40:00,20.0,17.0,-100.00,SSW,196,2.0,7.0,88,0.00,,,0.34,0.000000,,2013-03-09 13:40:00,
2013-03-09 07:01:00,20.0,17.0,-100.00,SSW,196,2.0,7.0,88,0.00,,,0.34,0.000000,,2013-03-09 14:01:00,
2013-03-09 07:11:00,20.0,17.0,-100.00,SSW,196,2.0,7.0,88,0.00,,,0.34,0.000000,,2013-03-09 14:11:00,
2013-03-09 07:21:00,20.0,17.0,-100.00,SSW,196,2.0,7.0,88,0.00,,,0.34,0.000000,,2013-03-09 14:21:00,
2013-03-09 07:31:00,20.0,17.0,-100.00,SSW,196,2.0,7.0,88,0.00,,,0.34,0.000000,,2013-03-09 14:31:00,
2013-03-09 07:40:00,21.0,18.0,-100.00,SW,215,1.0,6.0,87,0.00,,,0.34,25.000000,,2013-03-09 14:40:00,
2013-03-09 08:01:00,21.0,18.0,-100.00,SW,215,1.0,6.0,87,0.00,,,0.34,25.000000,,2013-03-09 15:01:00,
2013-03-09 08:11:00,21.0,18.0,-100.00,SW,215,1.0,6.0,87,0.00,,,0.34,25.000000,,2013-03-09 15:11:00,
2013-03-09 08:22:00,21.0,18.0,-100.00,SW,215,1.0,6.0,87,0.00,,,0.34,25.000000,,2013-03-09 15:22:00,
2013-03-09 08:31:00,21.0,18.0,-100.00,SW,215,1.0,6.0,87,0.00,,,0.34,25.000000,,2013-03-09 15:31:00,
2013-03-09 08:40:00,23.0,19.0,-100.00,WNW,302,2.0,7.0,86,0.01,,,0.35,70.000000,,2013-03-09 15:40:00,
2013-03-09 09:01:00,23.0,19.0,-100.00,WNW,302,2.0,7.0,86,0.01,,,0.35,70.000000,,2013-03-09 16:01:00,
2013-03-09 09:11:00,23.0,19.0,-100.00,WNW,302,2.0,7.0,86,0.01,,,0.35,70.000000,,2013-03-09 16:11:00,
2013-03-09 09:21:00,23.0,19.0,-100.00,WNW,302,2.0,7.0,86,0.01,,,0.35,70.000000,,2013-03-09 16:21:00,
2013-03-09 09:31:00,23.0,19.0,-100.00,WNW,302,2.0,7.0,86,0.01,,,0.35,70.000000,,2013-03-09 16:31:00,
2013-03-09 09:40:00,23.0,19.0,-100.00,WNW,303,4.0,7.0,86,0.02,,,0.37,70.000000,,2013-03-09 16:40:00,
2013-03-09 10:01:00,23.0,19.0,-100.00,WNW,303,4.0,7.0,86,0.02,,,0.37,70.000000,,2013-03-09 17:01:00,
2013-03-09 10:11:00,23.0,19.0,-100.00,WNW,303,4.0,7.0,86,0.02,,,0.37,70.000000,,2013-03-09 17:11:00,
2013-03-09 10:22:00,23.0,19.0,-100.00,WNW,303,4.0,7.0,86,0.02,,,0.37,70.000000,,2013-03-09 17:22:00,
2013-03-09 10:32:00,23.0,19.0,-100.00,WNW,303,4.0,7.0,86,0.02,,,0.37,70.000000,,2013-03-09 17:32:00,
2013-03-09 10:40:00,24.0,21.0,-100.00,NW,315,4.0,8.0,88,0.02,,,0.38,51.000000,,2013-03-09 17:40:00,
2013-03-09 11:01:00,24.0,21.0,-100.00,NW,315,4.0,8.0,88,0.02,,,0.38,51.000000,,2013-03-09 18:01:00,
2013-03-09 11:11:00,24.0,21.0,-100.00,NW,315,4.0,8.0,88,0.02,,,0.38,51.000000,,2013-03-09 18:11:00,
2013-03-09 11:21:00,24.0,21.0,-100.00,NW,315,4.0,8.0,88,0.02,,,0.38,51.000000,,2013-03-09 18:21:00,
2013-03-09 11:31:00,24.0,21.0,-100.00,NW,315,4.0,8.0,88,0.02,,,0.38,51.000000,,2013-03-09 18:31:00,
2013-03-09 11:40:00,27.0,23.0,-100.00,WNW,290,5.0,12.0,83,0.00,,,-99.99,96.000000,,2013-03-09 18:40:00,
2013-03-09 12:01:00,27.0,23.0,-100.00,WNW,290,5.0,12.0,83,0.00,,,-99.99,96.000000,,2013-03-09 19:01:00,
2013-03-09 12:11:00,27.0,23.0,-100.00,WNW,290,5.0,12.0,83,0.00,,,-99.99,96.000000,,2013-03-09 19:11:00,
2013-03-09 12:22:00,27.0,23.0,-100.00,WNW,290,5.0,12.0,83,0.00,,,-99.99,96.000000,,2013-03-09 19:22:00,
2013-03-09 12:32:00,27.0,23.0,-100.00,WNW,290,5.0,12.0,83,0.00,,,-99.99,96.000000,,2013-03-09 19:32:00,
2013-03-09 12:40:00,28.0,22.0,-100.00,WNW,294,6.0,14.0,79,0.00,,,0.34,175.000000,,2013-03-09 19:40:00,
2013-03-09 13:01:00,28.0,22.0,-100.00,WNW,294,6.0,14.0,79,0.00,,,0.34,175.000000,,2013-03-09 20:01:00,
2013-03-09 13:11:00,28.0,22.0,-100.00,WNW,294,6.0,14.0,79,0.00,,,0.34,175.000000,,2013-03-09 20:11:00,
2013-03-09 13:21:00,28.0,22.0,-100.00,WNW,294,6.0,14.0,79,0.00,,,0.34,175.000000,,2013-03-09 20:21:00,
2013-03-09 13:31:00,28.0,22.0,-100.00,WNW,294,6.0,14.0,79,0.00,,,0.34,175.000000,,2013-03-09 20:31:00,
2013-03-09 13:40:00,25.0,22.0,-100.00,NNW,329,8.0,15.0,88,0.01,,,0.35,66.000000,,2013-03-09 20:40:00,
2013-03-09 14:02:00,25.0,22.0,-100.00,NNW,329,8.0,15.0,88,0.01,,,0.35,66.000000,,2013-03-09 21:02:00,
2013-03-09 14:11:00,25.0,22.0,-100.00,NNW,329,8.0,15.0,88,0.01,,,0.35,66.000000,,2013-03-09 21:11:00,
2013-03-09 14:21:00,25.0,22.0,-100.00,NNW,329,8.0,15.0,88,0.01,,,0.35,66.000000,,2013-03-09 21:21:00,
2013-03-09 14:31:00,25.0,22.0,-100.00,NNW,329,8.0,15.0,88,0.01,,,0.35,66.000000,,2013-03-09 21:31:00,
2013-03-09 14:40:00,27.0,23.0,-100.00,NW,310,9.0,14.0,84,0.00,,,0.34,101.000000,,2013-03-09 21:40:00,
2013-03-09 15:01:00,27.0,23.0,-100.00,NW,310,9.0,14.0,84,0.00,,,0.34,101.000000,,2013-03-09 22:01:00,
2013-03-09 15:11:00,27.0,23.0,-100.00,NW,310,9.0,14.0,84,0.00,,,0.34,101.000000,,2013-03-09 22:11:00,
2013-03-09 15:21:00,27.0,23.0,-100.00,NW,310,9.0,14.0,84,0.00,,,0.34,101.000000,,2013-03-09 22:21:00,
2013-03-09 15:32:00,27.0,23.0,-100.00,NW,310,9.0,14.0,84,0.00,,,0.34,101.000000,,2013-03-09 22:32:00,
2013-03-09 15:40:00,25.0,22.0,-100.00,NNW,328,10.0,17.0,88,0.00,,,0.33,93.000000,,2013-03-09 22:40:00,
2013-03-09 16:01:00,25.0,22.0,-100.00,NNW,328,10.0,17.0,88,0.00,,,0.33,93.000000,,2013-03-09 23:01:00,
2013-03-09 16:11:00,25.0,22.0,-100.00,NNW,328,10.0,17.0,88,0.00,,,0.33,93.000000,,2013-03-09 23:11:00,
2013-03-09 16:21:00,25.0,22.0,-100.00,NNW,328,10.0,17.0,88,0.00,,,0.33,93.000000,,2013-03-09 23:21:00,
2013-03-09 16:32:00,25.0,22.0,-100.00,NNW,328,10.0,17.0,88,0.00,,,0.33,93.000000,,2013-03-09 23:32:00,
2013-03-09 16:40:00,25.0,22.0,-100.00,NNW,329,10.0,19.0,89,0.00,,,0.22,62.000000,,2013-03-09 23:40:00,
2013-03-09 17:01:00,25.0,22.0,-100.00,NNW,329,10.0,19.0,89,0.00,,,0.22,62.000000,,2013-03-10 00:01:00,
2013-03-09 17:11:00,25.0,22.0,-100.00,NNW,329,10.0,19.0,89,0.00,,,0.22,62.000000,,2013-03-10 00:11:00,
2013-03-09 17:22:00,25.0,22.0,-100.00,NNW,329,10.0,19.0,89,0.00,,,0.22,62.000000,,2013-03-10 00:22:00,
2013-03-09 17:31:00,25.0,22.0,-100.00,NNW,329,10.0,19.0,89,0.00,,,0.22,62.000000,,2013-03-10 00:31:00,
2013-03-09 17:40:00,25.0,23.0,-100.00,NNW,327,10.0,19.0,93,0.00,,,0.21,22.000000,,2013-03-10 00:40:00,
2013-03-09 18:01:00,25.0,23.0,-100.00,NNW,327,10.0,19.0,93,0.00,,,0.21,22.000000,,2013-03-10 01:01:00,
2013-03-09 18:11:00,25.0,23.0,-100.00,NNW,327,10.0,19.0,93,0.00,,,0.21,22.000000,,2013-03-10 01:11:00,
2013-03-09 18:21:00,25.0,23.0,-100.00,NNW,327,10.0,19.0,93,0.00,,,0.21,22.000000,,2013-03-10 01:21:00,
2013-03-09 18:31:00,25.0,23.0,-100.00,NNW,327,10.0,19.0,93,0.00,,,0.21,22.000000,,2013-03-10 01:31:00,
2013-03-09 18:40:00,25.0,24.0,-100.00,NW,319,8.0,17.0,94,0.00,,,-99.99,3.000000,,2013-03-10 01:40:00,
2013-03-09 19:01:00,25.0,24.0,-100.00,NW,319,8.0,17.0,94,0.00,,,-99.99,3.000000,,2013-03-10 02:01:00,
2013-03-09 19:11:00,25.0,24.0,-100.00,NW,319,8.0,17.0,94,0.00,,,-99.99,3.000000,,2013-03-10 02:11:00,
2013-03-09 19:22:00,25.0,24.0,-100.00,NW,319,8.0,17.0,94,0.00,,,-99.99,3.000000,,2013-03-10 02:22:00,
2013-03-09 19:31:00,25.0,24.0,-100.00,NW,319,8.0,17.0,94,0.00,,,-99.99,3.000000,,2013-03-10 02:31:00,
2013-03-09 19:40:00,26.0,25.0,-100.00,NW,323,7.0,20.0,94,0.00,,,0.21,0.000000,,2013-03-10 02:40:00,
2013-03-09 20:01:00,26.0,25.0,-100.00,NW,323,7.0,20.0,94,0.00,,,0.21,0.000000,,2013-03-10 03:01:00,
2013-03-09 20:11:00,26.0,25.0,-100.00,NW,323,7.0,20.0,94,0.00,,,0.21,0.000000,,2013-03-10 03:11:00,
2013-03-09 20:21:00,26.0,25.0,-100.00,NW,323,7.0,20.0,94,0.00,,,0.21,0.000000,,2013-03-10 03:21:00,
2013-03-09 20:31:00,26.0,25.0,-100.00,NW,323,7.0,20.0,94,0.00,,,0.21,0.000000,,2013-03-10 03:31:00,
2013-03-09 20:40:00,26.0,25.0,-100.00,NNW,329,9.0,16.0,94,0.00,,,0.21,0.000000,,2013-03-10 03:40:00,
2013-03-09 21:01:00,26.0,25.0,-100.00,NNW,329,9.0,16.0,94,0.00,,,0.21,0.000000,,2013-03-10 04:01:00,
2013-03-09 21:11:00,26.0,25.0,-100.00,NNW,329,9.0,16.0,94,0.00,,,0.21,0.000000,,2013-03-10 04:11:00,
2013-03-09 21:21:00,26.0,25.0,-100.00,NNW,329,9.0,16.0,94,0.00,,,0.21,0.000000,,2013-03-10 04:21:00,
2013-03-09 21:31:00,26.0,25.0,-100.00,NNW,329,9.0,16.0,94,0.00,,,0.21,0.000000,,2013-03-10 04:31:00,
2013-03-09 21:40:00,26.0,25.0,-100.00,NNW,329,7.0,17.0,94,0.00,,,0.17,0.000000,,2013-03-10 04:40:00,
2013-03-09 22:01:00,26.0,25.0,-100.00,NNW,329,7.0,17.0,94,0.00,,,0.17,0.000000,,2013-03-10 05:01:00,
2013-03-09 22:11:00,26.0,25.0,-100.00,NNW,329,7.0,17.0,94,0.00,,,0.17,0.000000,,2013-03-10 05:11:00,
2013-03-09 22:21:00,26.0,25.0,-100.00,NNW,329,7.0,17.0,94,0.00,,,0.17,0.000000,,2013-03-10 05:21:00,
2013-03-09 22:31:00,26.0,25.0,-100.00,NNW,329,7.0,17.0,94,0.00,,,0.17,0.000000,,2013-03-10 05:31:00,
2013-03-09 22:40:00,24.0,22.0,-100.00,NW,318,10.0,19.0,93,0.00,,,0.15,0.000000,,2013-03-10 05:40:00,
2013-03-09 23:01:00,24.0,22.0,-100.00,NW,318,10.0,19.0,93,0.00,,,0.15,0.000000,,2013-03-10 06:01:00,
2013-03-09 23:11:00,24.0,22.0,-100.00,NW,318,10.0,19.0,93,0.00,,,0.15,0.000000,,2013-03-10 06:11:00,
2013-03-09 23:21:00,24.0,22.0,-100.00,NW,318,10.0,19.0,93,0.00,,,0.15,0.000000,,2013-03-10 06:21:00,
2013-03-09 23:32:00,24.0,22.0,-100.00,NW,318,10.0,19.0,93,0.00,,,0.15,0.000000,,2013-03-10 06:32:00,
2013-03-09 23:40:00,23.0,21.0,-100.00,NNW,331,10.0,18.0,92,0.00,,,0.14,0.000000,,2013-03-10 06:40:00,